Location: NJAA Observatory
(40.6819°N, 74.8979°W)
Time: 16:35:17
(UTC-05:00)

Cosmos 2237 Rocket - Visible Passes

Search period start: 30 January 2015 00:00
Search period end: 09 February 2015 00:00
Orbit: 835 x 850 km, 71.0° (Epoch: 28 January)

Date Brightness Start Highest point End Pass type
(mag) Time Alt. Az. Time Alt. Az. Time Alt. Az.
02 Feb 3.9 06:33:39 10° N 06:38:40 32° ENE 06:43:44 10° ESE visible
03 Feb 4.0 06:18:54 10° N 06:23:52 30° NE 06:28:52 10° ESE visible
04 Feb 4.0 06:04:10 10° N 06:09:03 29° NE 06:14:00 10° ESE visible
05 Feb 4.1 05:49:26 10° N 05:54:15 28° NE 05:59:08 10° ESE visible
06 Feb 4.1 05:34:42 10° N 05:39:26 27° NE 05:44:15 10° ESE visible
07 Feb 4.2 05:19:58 10° N 05:24:37 26° NE 05:29:22 10° ESE visible
08 Feb 4.2 05:05:15 10° N 05:09:48 25° NE 05:14:28 10° ESE visible
